Погода Анучино

Погода Анучино : погода сейчас, прогноз погоды и архив. Всё, что Вы хотите узнать о погоде Анучино!

Хотите узнать прогноз погоды Анучино? Тогда Вам сюда: Погода Анучино

Поиск расширенной информации на нашем сайте:

Другие новости

Новости СМИ2

Главная страница сайта

Новости сайта

02.10.2013

Напоминаем, что на нашем новом сайте вы можете получить высокодетализированные прогнозы погоды по пунктам России, СНГ и мира (включающие важные для авиации метеовеличины, такие как направление и скорость ветра, видимость, явления погоды, количество и форма облачности, нижняя и верхняя граница облачности), а также ознакомиться с разнообразными материалами по авиационной метеорологии и подборкой полезных ссылок на эту тему.

Сайт Метеоцентр.Азия посвящён разработке технологий оптимизации авиаметеорологического обслуживания, включая проектирование и перспективное создание нескольких автоматизированных авиаметеорологических систем:
- система выпуска высокодетальных прогностических карт явлений погоды для нижнего воздушного пространства по России и ближнему зарубежью;
- система верификации прогнозов TAF (выпускаемых синоптиками официальных АМСГ РФ и ближнего зарубежья) и AUTOTAF (выпускаемых сайтом Метеоцентр.Азия) - выявление ошибок, онлайн-сопоставление с фактической погодой METAR, автоматическое внесение коррективов в прогнозы при резком отклонении фактической погоды от прогноза, подсчёт оправдываемости прогнозов по элементам и в целом;
- система обработки, анализа и отображения авиаметеорологической информации для применения провайдерами метеорологической информации.


Погода Анучино - сегодня

Время (UTC), дата Ветер
(°,м/с) 
Видим.   Явления Облачность Т
(°С)
Тd
(°С)
f(%) Тe
(°С)
Pmin
(гПа)
dP
(гПа)
Po
(мм)
O2
(г/м3)
Тmin Tmax R s Состояние
почвы
21 18.01.17 220 (ЮЗ) 20000 м    10/10 600 м 
[Sc]
-13.3 -15.3 85 -13  1028.8  -0.2  753  320  -16.5      31  равномерный
сухой снег
100% 
00 19.01.17 210 (ЮЗ) 20000 м    6/3 600 м средняя 
[Sc|Ac lent]
-17.7 -19.7 84 -18  1029.2  0.1  753  326  -18.1         
03 19.01.17 тихо ()   20000 м    8/8 600 м 
[Cu med, cong]
-9.5 -15.2 63 -10  1027.1  -1.2  752  315           
06 19.01.17 тихо ()   20000 м    ясно 
-7.3 -16.4 48 -7  1024.8  -2.1  750  312           
09 19.01.17 тихо ()   20000 м    6/0 средняя 
[Ac trans]
-15.1 -18.4 76 -15  1025.6  -0.1  750  322    -7.3       
12 19.01.17 240 (ЮЗ) 20000 м    ясно 
-21.5 -23.7 82 -22  1025.8  -0.4  750  330           
15 19.01.17 200 (Ю) 20000 м    ясно 
-23.8 -26.4 79 -24  1025.9  0.1  750  333           
18 19.01.17 240 (ЮЗ) 20000 м    ясно 
-25.9 -28.7 77 -29  1025.5  -0.7  750  336           
21 19.01.17 230 (ЮЗ) 20000 м    ясно 
-26.7 -29.7 76 -30  1025  -0.6  749  336  -27.7      31  равномерный
сухой снег
100% 
00 20.01.17 240 (ЮЗ) 20000 м    4/0 верхняя 
[Ci fib]
-26.4 -29.5 75 -30  1025.8  0.8  750  336  -28         
03 20.01.17 210 (ЮЗ) 20000 м    10/0 средняя, верхняя 
[Ac trans|Ci fib]
-18.7 -29.5 38 -21  1025.2  0.1  750  326           
06 20.01.17 020 (С) 20000 м    10/0 верхняя 
[Cc]
-13.8 -18.8 66 -14  1024.3  -0.3  750  320           
09 20.01.17 030 (СВ) 20000 м    8/0 верхняя 
[Cc]
-18.4 -21 80 -19  1026.6  1.8  751  326    -12.6       
12 20.01.17 240 (ЮЗ) 20000 м    ясно 
-23.8 -26.2 81 -27  1028.9  1.7  752  334           
15 20.01.17 210 (ЮЗ) 20000 м    ясно 
-25.2 -27.9 78 -28  1029.8  0.7  753  336           
18 20.01.17 230 (ЮЗ) 20000 м    ясно 
-28.3 -31.5 74 -32  1030.4  0.3  753  340           
21 20.01.17 240 (ЮЗ) 20000 м    ясно 
-27.6 -30.7 75 -31  1030.9  0.5  753  340  -29.3      31  равномерный
сухой снег
100% 
00 21.01.17 240 (ЮЗ) 20000 м    ясно 
-26.8 -30 74 -30  1031.1  0.3  754  339           
03 21.01.17 200 (Ю) 20000 м    10/0 верхняя 
[Cs]
-17.9 -23 64 -18  1028.1  -2  752  326           
06 21.01.17 070 (В) 20000 м    10/0 верхняя 
[Cs]
-13.7 -20 59 -14  1024.4  -3.1  750  320           
09 21.01.17 тихо ()   20000 м    8/0 верхняя 
[Cs]
-16.2 -20.9 67 -16  1024.2  -0.5  749  323    -13.5       
12 21.01.17 240 (ЮЗ) 20000 м    6/0 верхняя 
[Ci fib]
-20.1 -22.6 80 -20  1024  -0.6  749  327           
15 21.01.17 тихо ()   20000 м    8/0 верхняя 
[Ci fib]
-22.3 -24.8 80 -22  1023.8  -0.4  749  330           
18 21.01.17 220 (ЮЗ) 20000 м    4/0 верхняя 
[Ci fib]
-24 -26.7 78 -24  1023.3  -0.7  748  332           
21 21.01.17 210 (ЮЗ) 20000 м    3/0 верхняя 
[Ci fib]
-25.1 -27.9 77 -26  1023.5  748  334  -25.1      30  равномерный
сухой снег
100% 
Время (UTC), дата Ветер
(°,м/с) 
Видим.   Явления Облачность Т
(°С)
Тd
(°С)
f(%) Тe
(°С)
Pmin
(гПа)
dP
(гПа)
Po
(мм)
O2
(г/м3)
Тmin Tmax R s Состояние
почвы

Для получения пояснительной информации подведите курсор к названию столбца.

ПОГОДА Анучино - архив

Всё, что Вы хотите узнать о погоде Анучино - удобно и подробно!

Выберите нужную дату (начиная с 1 января 2015* года) и нажмите кнопку "Найти".
Будут отображены архивные сводки погоды по пункту Анучино, начиная с указанной даты.


Отображать данные в формате CSV (для использования в таблицах Excel)


Внимание! Наш архив погоды предназначен исключительно для личного некоммерческого использования в познавательных целях. Если Вам необходимы официальные справки о состоянии погоды (для производственных, юридических, коммерческих и т.п. целей), обращайтесь в органы Росгидромета.

*Примечание: данная дата относится к архиву по метеостанциям СССР (Россия, СНГ, Балтия).
Архив по метеостанциям Зарубежной Европы и Азии (кроме Китая) хранится 10 дней, по другим регионам земного шара (Китай, Африка, Америка, Австралия, Океания) - 1 день.

Анучино - район местоположения метеостанции


Название, широта, долгота, высота метеостанции:
Анучино 44°ш. 133.1°д. 188 м над ур. моря [Российская Федерация]

Дополнительная информация

В oтличие oт бoльшинства пoгoдных сайтoв мы публикуем пoдрoбную метеoинфoрмацию в детальнoм прoфессиoнальнoм фoрмате.

Характеристики температуры и влажнoсти вoздуха измеряются на высoте 2 м в тени вдали oт зданий и деревьев.
Скoрoсть ветра измеряется на высoте 10 м (на урoвне рoста челoвека скoрoсть ветра ниже в 1.5-2 раза). Если метеoстанция нахoдится в гoрoде или в лесу, тo скoрoсть ветра занижена на 2-4 м/с пo сравнению с oткрытым местoм. Скoрoсть ветра над акватoриями крупных рек и oзёр, а также на вершинах хoлмoв на 2-5 м/с выше, чем в oбычных услoвиях.
Атмoсфернoе давление в разных тoчках местнoсти мoжет значительнo oтличаться oт давления на метеoстанции, в зависимoсти oт услoвий рельефа (при пoдъёме на 10 м давление пoнижается примернo на 1 мм рт.ст.).